{"data":{"norad_id":48453,"intl_designator":"2021-040AB","name":"STARLINK-2620","alt_names":[],"object_type":"PAYLOAD","status":"ACTIVE","operator":null,"country":"US","launch_date":"2021-05-09","launch_site_code":"AFETR","launch_vehicle":null,"mission":null,"orbit_class":"UNKNOWN","rcs_meters":null,"size_class":null,"mass_kg":null,"dimensions":null,"purposes":["comms"],"wikipedia_slug":null,"has_3d_model":false,"image_url":null,"decayed_at":null,"tle_current":{"epoch":"2026-09-19T20:00:58.446720Z","epoch_age_seconds":94872,"freshness":"FRESH","line1":"1 48453U 21040AB  26262.83400980 -.00000243  00000+0  39454-5 0  9990","line2":"2 48453  53.1624 354.5899 0001173 109.7461 250.3667 15.31707120296430","mean_motion":15.3170712,"eccentricity":0.0001173,"inclination_deg":53.1624,"raan_deg":354.5899,"arg_perigee_deg":109.7461,"mean_anomaly_deg":250.3667,"bstar":3.9454e-6,"rev_number":29643,"period_min":94.012750949411,"perigee_km":469.91540017643,"apogee_km":471.52214174029,"semimajor_km":6848.8557709584,"source":"CELESTRAK","updated_at":"2026-09-20T09:00:39.126837Z"}}}